Total_Precipitation_Accumulation
1.79 1.82 1.82 1.74 1.60 1.56 1.59 1.55 1.47 1.49 1.56 1.56 1.46 1.38 1.46 1.46 1.40 1.46 1.47 1.52 1.61 1.76 1.91 2.07 2.25 2.52 2.84 2.88 2.83 2.71 2.62 2.52 2.30 2.07 1.91 1.82 2.10 2.13 2.03 1.90 1.90 1.89 1.69
1.62 1.67 1.69 1.60 1.49 1.46 1.46 1.40 1.24 1.13 1.14 1.26 1.38 1.31 1.30 1.32 1.37 1.45 1.45 1.48 1.52 1.60 1.70 1.84 2.08 2.41 2.77 2.96 3.01 2.87 2.72 2.62 2.48 2.32 2.01 1.75 1.84 2.12 2.21 2.14 1.98 1.86 1.75
1.63 1.52 1.41 1.37 1.38 1.41 1.35 1.31 1.22 1.06 0.97 0.95 1.04 1.03 1.13 1.27 1.32 1.38 1.40 1.47 1.51 1.55 1.69 1.74 1.80 2.03 2.26 2.45 2.62 2.74 2.70 2.71 2.67 2.42 2.13 1.81 1.71 1.84 2.10 2.13 2.09 2.12 1.91
1.70 1.59 1.45 1.36 1.36 1.37 1.35 1.32 1.23 1.12 1.04 1.03 1.13 1.17 1.14 1.18 1.26 1.35 1.38 1.37 1.40 1.41 1.46 1.53 1.59 1.65 1.86 2.03 2.15 2.36 2.55 2.81 2.87 2.71 2.43 2.08 1.91 1.77 1.87 2.11 2.22 2.17 2.13
1.72 1.72 1.57 1.50 1.50 1.40 1.33 1.34 1.29 1.24 1.14 1.11 1.20 1.30 1.36 1.34 1.34 1.40 1.36 1.33 1.37 1.35 1.36 1.34 1.39 1.45 1.59 1.79 1.81 2.03 2.34 2.64 2.73 2.81 2.69 2.37 2.04 1.88 1.66 1.80 2.11 2.36 2.39
1.46 1.54 1.53 1.45 1.37 1.33 1.33 1.30 1.23 1.17 1.09 1.03 1.03 1.08 1.17 1.23 1.60 1.56 1.33 1.23 1.28 1.33 1.36 1.33 1.35 1.31 1.30 1.41 1.57 1.70 1.98 2.21 2.34 2.43 2.46 2.29 2.02 1.90 1.90 1.86 1.97 2.20 2.30
1.17 1.31 1.32 1.27 1.20 1.22 1.29 1.22 1.13 1.05 1.02 0.95 0.93 0.88 0.92 1.13 1.33 1.17 1.19 1.15 1.22 1.34 1.42 1.46 1.38 1.29 1.34 1.34 1.41 1.43 1.46 1.69 1.91 2.13 2.20 2.04 2.10 2.06 2.05 1.94 1.94 1.99 2.01
0.84 0.95 1.03 1.10 1.13 1.15 1.19 1.18 1.18 1.10 1.00 0.92 0.93 0.96 0.93 1.02 1.19 1.05 1.04 1.07 1.25 1.36 1.34 1.32 1.42 1.41 1.44 1.52 1.43 1.45 1.36 1.34 1.45 1.49 1.69 1.93 2.12 2.33 2.35 2.26 2.26 2.18 2.09
0.63 0.68 0.75 0.84 0.98 1.08 1.05 1.04 1.19 1.22 1.13 1.04 1.09 1.10 1.02 0.99 1.14 1.10 1.10 1.09 1.21 1.31 1.28 1.30 1.42 1.49 1.72 1.82 1.62 1.62 1.53 1.45 1.44 1.59 1.72 1.83 1.97 2.11 2.32 2.39 2.34 2.33 2.23
0.58 0.60 0.68 0.70 0.80 0.93 1.01 1.05 1.04 1.01 1.03 1.07 1.06 0.98 0.94 0.99 1.15 1.12 1.18 1.22 1.30 1.40 1.39 1.42 1.72 1.72 1.81 1.79 1.61 1.70 1.62 1.43 1.35 1.41 1.47 1.54 1.59 1.73 1.93 1.99 2.20 2.40 2.32
0.64 0.64 0.65 0.67 0.72 0.78 0.79 0.79 0.82 0.87 0.86 0.87 0.87 0.88 0.92 1.03 1.10 1.16 1.35 1.36 1.39 1.52 1.51 1.51 1.51 1.76 1.72 1.67 1.65 1.59 1.70 1.58 1.44 1.44 1.41 1.40 1.44 1.52 1.59 1.67 1.86 2.10 2.26
0.60 0.60 0.57 0.59 0.60 0.62 0.64 0.63 0.64 0.73 0.81 0.85 0.90 0.95 0.96 0.98 1.03 1.09 1.23 1.31 1.38 1.53 1.57 1.44 1.34 1.67 1.65 1.58 1.48 1.50 1.69 1.72 1.63 1.63 1.59 1.48 1.39 1.37 1.38 1.47 1.60 1.75 1.89
0.54 0.51 0.54 0.57 0.57 0.54 0.56 0.60 0.65 0.67 0.71 0.75 0.83 0.91 1.00 1.02 1.03 1.14 1.15 1.20 1.30 1.43 1.48 1.51 1.47 1.51 1.43 1.37 1.53 1.59 1.59 1.55 1.62 1.67 1.54 1.36 1.28 1.28 1.36 1.49 1.63 1.74 1.82
0.49 0.46 0.50 0.55 0.57 0.56 0.55 0.57 0.59 0.61 0.63 0.67 0.74 0.80 0.85 0.93 0.98 1.13 1.25 1.25 1.30 1.33 1.34 1.40 1.38 1.32 1.30 1.29 1.39 1.53 1.53 1.58 1.63 1.56 1.45 1.29 1.28 1.36 1.40 1.43 1.60 1.77 1.91
0.49 0.48 0.47 0.52 0.56 0.59 0.58 0.58 0.59 0.59 0.69 0.76 0.77 0.79 0.79 0.80 0.89 1.10 1.28 1.40 1.51 1.61 1.62 1.44 1.33 1.28 1.26 1.22 1.27 1.34 1.39 1.41 1.46 1.43 1.40 1.39 1.38 1.39 1.39 1.36 1.47 1.58 1.61
0.49 0.48 0.46 0.44 0.46 0.54 0.61 0.62 0.66 0.67 0.76 0.78 0.79 0.79 0.78 0.85 0.89 0.91 1.01 1.23 1.53 1.87 2.07 1.89 1.78 1.64 1.53 1.39 1.34 1.32 1.26 1.24 1.28 1.34 1.37 1.36 1.39 1.47 1.51 1.45 1.47 1.53 1.53
0.45 0.47 0.45 0.43 0.43 0.47 0.54 0.62 0.66 0.65 0.62 0.62 0.64 0.69 0.74 0.81 0.83 0.87 0.94 1.02 1.24 1.64 1.98 1.92 1.86 1.68 1.54 1.46 1.36 1.27 1.20 1.17 1.23 1.25 1.27 1.32 1.36 1.42 1.49 1.48 1.43 1.46 1.49
0.48 0.50 0.51 0.50 0.48 0.50 0.53 0.59 0.71 0.80 0.75 0.62 0.65 0.69 0.73 0.79 0.84 0.98 1.12 1.19 1.23 1.39 1.53 1.58 1.52 1.45 1.36 1.23 1.18 1.17 1.13 1.15 1.22 1.23 1.21 1.22 1.28 1.37 1.41 1.48 1.48 1.46 1.50
0.48 0.53 0.57 0.58 0.55 0.57 0.61 0.66 0.70 0.65 0.65 0.66 0.63 0.66 0.76 0.82 0.86 0.92 1.02 1.02 1.01 1.07 1.10 1.10 1.09 1.10 1.09 1.05 1.02 1.02 1.06 1.11 1.17 1.22 1.23 1.19 1.20 1.27 1.36 1.43 1.52 1.64 1.61
0.44 0.55 0.63 0.69 0.63 0.59 0.67 0.70 0.66 0.62 0.65 0.68 0.65 0.63 0.71 0.78 0.80 0.85 0.90 0.89 0.86 0.86 0.86 0.85 0.87 0.89 0.93 0.94 0.98 1.01 1.03 1.08 1.15 1.18 1.19 1.24 1.25 1.25 1.28 1.37 1.47 1.56 1.56
0.49 0.52 0.57 0.66 0.68 0.66 0.73 0.72 0.70 0.68 0.68 0.69 0.68 0.73 0.80 0.78 0.79 0.80 0.82 0.82 0.83 0.86 0.84 0.84 0.83 0.85 0.91 0.93 0.98 1.05 1.11 1.13 1.16 1.23 1.21 1.22 1.28 1.32 1.33 1.37 1.42 1.47 1.52
0.51 0.55 0.52 0.57 0.64 0.69 0.72 0.73 0.74 0.72 0.69 0.71 0.71 0.74 0.80 0.77 0.76 0.77 0.77 0.79 0.81 0.85 0.90 0.92 0.94 0.94 0.95 0.98 1.03 1.09 1.13 1.16 1.17 1.23 1.27 1.27 1.28 1.30 1.32 1.36 1.43 1.48 1.49
0.50 0.59 0.58 0.58 0.60 0.69 0.70 0.69 0.75 0.76 0.74 0.74 0.74 0.72 0.74 0.74 0.75 0.79 0.80 0.80 0.84 0.86 0.85 0.88 0.93 0.96 0.95 0.97 1.03 1.11 1.19 1.21 1.22 1.28 1.36 1.36 1.31 1.31 1.35 1.34 1.36 1.45 1.49
0.55 0.63 0.68 0.71 0.71 0.73 0.71 0.69 0.71 0.70 0.72 0.76 0.75 0.73 0.77 0.82 0.81 0.78 0.80 0.86 0.87 0.87 0.85 0.84 0.85 0.90 0.93 0.97 1.02 1.08 1.10 1.17 1.23 1.30 1.37 1.42 1.40 1.35 1.38 1.42 1.41 1.43 1.52
0.59 0.64 0.70 0.78 0.83 0.82 0.79 0.74 0.71 0.68 0.69 0.73 0.70 0.71 0.72 0.75 0.79 0.80 0.82 0.87 0.91 0.90 0.88 0.88 0.88 0.89 0.90 0.93 0.98 1.02 1.17 1.24 1.25 1.28 1.38 1.51 1.53 1.47 1.44 1.51 1.56 1.58 1.63
0.60 0.63 0.69 0.77 0.85 0.89 0.87 0.84 0.80 0.75 0.73 0.71 0.69 0.72 0.76 0.79 0.82 0.84 0.88 0.92 0.94 0.94 0.92 0.92 0.92 0.93 0.92 0.91 0.97 1.10 1.18 1.14 1.17 1.27 1.35 1.51 1.65 1.66 1.64 1.64 1.63 1.66 1.71